| time (UTC) | temp F | wind direction | speed MPH | gust MPH | rain 1hr in | rain 24hr in | rain mn in | humidity % | barometer mb |
| 20260505124517 | 59 | 0 | 0.0 | 2.0 | 0.00 | 0.00 | 0.00 | 59 | 1012.7 |
| 20260505123515 | 59 | 15 | 0.0 | 2.0 | 0.00 | 0.00 | 0.00 | 60 | 1012.8 |
| 20260505122612 | 58 | 143 | 1.0 | 4.0 | 0.00 | 0.00 | 0.00 | 63 | 1012.7 |
| 20260505121610 | 58 | 183 | 1.0 | 6.0 | 0.00 | 0.00 | 0.00 | 63 | 1012.8 |
| 20260505120607 | 58 | 338 | 0.0 | 2.0 | 0.00 | 0.00 | 0.00 | 62 | 1012.9 |
| 20260505115605 | 58 | 35 | 0.0 | 4.0 | 0.00 | 0.00 | 0.00 | 61 | 1012.9 |
| 20260505114602 | 58 | 151 | 1.0 | 4.0 | 0.00 | 0.00 | 0.00 | 62 | 1012.9 |
| 20260505113559 | 57 | 34 | 1.0 | 4.0 | 0.00 | 0.00 | 0.00 | 64 | 1012.9 |
| 20260505112557 | 57 | 153 | 0.0 | 4.0 | 0.00 | 0.00 | 0.00 | 64 | 1012.9 |
| 20260505111554 | 56 | 22 | 1.0 | 4.0 | 0.00 | 0.00 | 0.00 | 65 | 1013.0 |
| 20260505110552 | 57 | 38 | 0.0 | 4.0 | 0.00 | 0.00 | 0.00 | 64 | 1013.0 |
| 20260505101539 | 57 | 11 | 0.0 | 2.0 | 0.00 | 0.00 | 0.00 | 65 | 1013.3 |
| 20260505100536 | 57 | 23 | 0.0 | 2.0 | 0.00 | 0.00 | 0.00 | 65 | 1013.3 |
| 20260505095534 | 57 | 45 | 1.0 | 4.0 | 0.00 | 0.00 | 0.00 | 65 | 1013.4 |
| 20260505094531 | 56 | 0 | 1.0 | 4.0 | 0.00 | 0.00 | 0.00 | 66 | 1013.4 |
| 20260505093528 | 56 | 6 | 1.0 | 4.0 | 0.00 | 0.00 | 0.00 | 67 | 1013.4 |
| 20260505092526 | 56 | 0 | 0.0 | 2.0 | 0.00 | 0.00 | 0.00 | 66 | 1013.4 |
| 20260505091523 | 56 | 31 | 0.0 | 4.0 | 0.00 | 0.00 | 0.00 | 66 | 1013.5 |
| 20260505090521 | 56 | 10 | 1.0 | 4.0 | 0.00 | 0.00 | 0.00 | 65 | 1013.7 |
| 20260505085518 | 55 | 124 | 1.0 | 2.0 | 0.00 | 0.00 | 0.00 | 67 | 1013.6 |
| 20260505084515 | 56 | 15 | 1.0 | 4.0 | 0.00 | 0.00 | 0.00 | 65 | 1013.7 |
| 20260505083613 | 54 | 42 | 0.0 | 2.0 | 0.00 | 0.00 | 0.00 | 70 | 1013.8 |
| 20260505082611 | 55 | 23 | 0.0 | 2.0 | 0.00 | 0.00 | 0.00 | 69 | 1013.7 |
| 20260505081608 | 55 | 23 | 0.0 | 2.0 | 0.00 | 0.00 | 0.00 | 69 | 1013.7 |
| 20260505080606 | 53 | 129 | 0.0 | 2.0 | 0.00 | 0.00 | 0.00 | 73 | 1013.7 |
| 20260505075603 | 51 | 158 | 0.0 | 2.0 | 0.00 | 0.00 | 0.00 | 76 | 1013.8 |
| 20260505074600 | 50 | 0.0 | 2.0 | 0.00 | 0.00 | 0.00 | 77 | 1013.7 | |
| 20260505073558 | 50 | 14 | 0.0 | 2.0 | 0.00 | 0.00 | 0.00 | 78 | 1013.7 |
| 20260505072555 | 50 | 7 | 1.0 | 4.0 | 0.00 | 0.00 | 0.00 | 78 | 1013.8 |
| 20260505071553 | 50 | 23 | 0.0 | 2.0 | 0.00 | 0.00 | 0.00 | 78 | 1013.8 |
| 20260505070550 | 50 | 7 | 0.0 | 2.0 | 0.00 | 0.00 | 0.00 | 77 | 1013.8 |
| 20260505065547 | 49 | 11 | 0.0 | 2.0 | 0.00 | 0.00 | 0.00 | 78 | 1013.7 |
| 20260505064545 | 49 | 14 | 1.0 | 2.0 | 0.00 | 0.00 | 0.00 | 79 | 1013.8 |
| 20260505063542 | 49 | 0.0 | 2.0 | 0.00 | 0.00 | 0.00 | 80 | 1013.8 | |
| 20260505062540 | 48 | 0.0 | 2.0 | 0.00 | 0.00 | 0.00 | 81 | 1013.9 | |
| 20260505061542 | 48 | 180 | 0.0 | 2.0 | 0.00 | 0.00 | 0.00 | 82 | 1014.0 |
| 20260505060534 | 47 | 0.0 | 2.0 | 0.00 | 0.00 | 0.00 | 82 | 1013.9 | |
| 20260505055537 | 47 | 11 | 0.0 | 2.0 | 0.00 | 0.00 | 0.00 | 82 | 1014.0 |
| 20260505054529 | 46 | 0 | 0.0 | 4.0 | 0.00 | 0.00 | 0.00 | 83 | 1013.9 |
| 20260505053527 | 46 | 0.0 | 0.0 | 0.00 | 0.00 | 0.00 | 83 | 1013.9 | |
| 20260505052524 | 46 | 0.0 | 2.0 | 0.00 | 0.00 | 0.00 | 84 | 1013.9 | |
| 20260505051522 | 46 | 0.0 | 2.0 | 0.00 | 0.00 | 0.00 | 84 | 1014.0 | |
| 20260505050519 | 45 | 0.0 | 0.0 | 0.00 | 0.00 | 0.00 | 84 | 1013.9 | |
| 20260505041607 | 45 | 0.0 | 0.0 | 0.00 | 0.00 | 0.00 | 83 | 1013.8 | |
| 20260505040604 | 45 | 0 | 0.0 | 2.0 | 0.00 | 0.00 | 0.00 | 83 | 1013.9 |
| 20260505035602 | 46 | 0.0 | 2.0 | 0.00 | 0.00 | 0.00 | 82 | 1013.9 | |
| 20260505034559 | 46 | 0.0 | 2.0 | 0.00 | 0.00 | 0.00 | 82 | 1014.0 | |
| 20260505033556 | 46 | 0.0 | 0.0 | 0.00 | 0.00 | 0.00 | 82 | 1013.9 | |
| 20260505032554 | 46 | 0.0 | 0.0 | 0.00 | 0.00 | 0.00 | 82 | 1014.0 | |
| 20260505031551 | 46 | 45 | 0.0 | 2.0 | 0.00 | 0.00 | 0.00 | 82 | 1014.0 |
| 20260505030549 | 46 | 0.0 | 0.0 | 0.00 | 0.00 | 0.00 | 82 | 1014.1 | |
| 20260505025546 | 46 | 0.0 | 2.0 | 0.00 | 0.00 | 0.00 | 83 | 1014.1 | |
| 20260505024544 | 47 | 338 | 0.0 | 2.0 | 0.00 | 0.00 | 0.00 | 82 | 1014.0 |
| 20260505023541 | 47 | 11 | 0.0 | 2.0 | 0.00 | 0.00 | 0.00 | 82 | 1014.1 |
| 20260505022539 | 47 | 0 | 0.0 | 2.0 | 0.00 | 0.00 | 0.00 | 81 | 1014.1 |
| 20260505021536 | 47 | 0 | 0.0 | 2.0 | 0.00 | 0.00 | 0.00 | 81 | 1014.3 |
| 20260505020533 | 47 | 0.0 | 0.0 | 0.00 | 0.00 | 0.00 | 81 | 1014.2 | |
| 20260505015531 | 47 | 0.0 | 2.0 | 0.00 | 0.00 | 0.00 | 81 | 1014.3 | |
| 20260505014528 | 47 | 0.0 | 2.0 | 0.00 | 0.00 | 0.00 | 81 | 1014.4 | |
| 20260505013525 | 47 | 0.0 | 0.0 | 0.00 | 0.00 | 0.00 | 81 | 1014.4 | |
| 20260505012523 | 47 | 0.0 | 0.0 | 0.00 | 0.00 | 0.00 | 82 | 1014.4 | |
| 20260505011520 | 47 | 0.0 | 0.0 | 0.00 | 0.00 | 0.00 | 82 | 1014.4 | |
| 20260505010518 | 47 | 0.0 | 0.0 | 0.00 | 0.00 | 0.00 | 81 | 1014.5 | |
| 20260505005515 | 47 | 0.0 | 0.0 | 0.00 | 0.00 | 0.00 | 81 | 1014.6 | |
| 20260505004613 | 47 | 0.0 | 0.0 | 0.00 | 0.00 | 0.00 | 81 | 1014.7 | |
| 20260505003610 | 47 | 0.0 | 0.0 | 0.00 | 0.00 | 0.00 | 81 | 1014.8 | |
| 20260505002608 | 47 | 0.0 | 0.0 | 0.00 | 0.00 | 0.00 | 81 | 1014.7 | |
| 20260505001605 | 47 | 0.0 | 2.0 | 0.00 | 0.00 | 0.00 | 81 | 1014.7 | |
| 20260505000603 | 47 | 0.0 | 0.0 | 0.00 | 0.00 | 0.00 | 82 | 1014.8 | |
| 20260504235600 | 47 | 23 | 0.0 | 2.0 | 0.00 | 0.00 | 0.00 | 82 | 1014.8 |
| 20260504233555 | 47 | 4 | 1.0 | 4.0 | 0.00 | 0.00 | 0.00 | 81 | 1014.8 |
| 20260504232553 | 47 | 0.0 | 2.0 | 0.00 | 0.00 | 0.00 | 81 | 1014.9 | |
| 20260504231550 | 47 | 0.0 | 2.0 | 0.00 | 0.00 | 0.00 | 82 | 1015.0 | |
| 20260504230547 | 48 | 0.0 | 0.0 | 0.00 | 0.00 | 0.00 | 82 | 1015.1 | |
| 20260504225545 | 48 | 0.0 | 0.0 | 0.00 | 0.00 | 0.00 | 82 | 1015.1 | |
| 20260504224542 | 48 | 0.0 | 0.0 | 0.00 | 0.00 | 0.00 | 82 | 1015.2 | |
| 20260504223540 | 48 | 0.0 | 2.0 | 0.00 | 0.00 | 0.00 | 82 | 1015.1 | |
| 20260504222537 | 48 | 0.0 | 2.0 | 0.00 | 0.00 | 0.00 | 81 | 1015.1 | |
| 20260504221535 | 49 | 0.0 | 2.0 | 0.00 | 0.00 | 0.00 | 81 | 1015.2 | |
| 20260504220532 | 49 | 34 | 0.0 | 2.0 | 0.00 | 0.00 | 0.00 | 80 | 1015.2 |
| 20260504215529 | 49 | 23 | 0.0 | 2.0 | 0.00 | 0.00 | 0.00 | 80 | 1015.2 |
| 20260504214527 | 50 | 0 | 0.0 | 2.0 | 0.00 | 0.00 | 0.00 | 80 | 1015.2 |
| 20260504213524 | 50 | 0.0 | 2.0 | 0.00 | 0.00 | 0.00 | 82 | 1015.3 | |
| 20260504212522 | 50 | 0.0 | 2.0 | 0.00 | 0.00 | 0.00 | 84 | 1015.3 | |
| 20260504211519 | 50 | 0.0 | 2.0 | 0.00 | 0.00 | 0.00 | 84 | 1015.4 | |
| 20260504210517 | 51 | 0.0 | 0.0 | 0.00 | 0.00 | 0.00 | 84 | 1015.4 | |
| 20260504205614 | 51 | 0.0 | 0.0 | 0.00 | 0.00 | 0.00 | 85 | 1015.4 | |
| 20260504204612 | 51 | 0.0 | 0.0 | 0.00 | 0.00 | 0.00 | 85 | 1015.3 | |
| 20260504203609 | 51 | 0.0 | 0.0 | 0.00 | 0.00 | 0.00 | 85 | 1015.3 | |
| 20260504202606 | 51 | 0.0 | 0.0 | 0.00 | 0.01 | 0.00 | 84 | 1015.3 | |
| 20260504201604 | 51 | 0.0 | 0.0 | 0.00 | 0.01 | 0.00 | 84 | 1015.3 | |
| 20260504200601 | 52 | 0.0 | 0.0 | 0.00 | 0.01 | 0.00 | 83 | 1015.2 | |
| 20260504195559 | 52 | 0.0 | 0.0 | 0.00 | 0.01 | 0.00 | 83 | 1015.2 | |
| 20260504194556 | 53 | 0.0 | 0.0 | 0.00 | 0.01 | 0.00 | 81 | 1015.1 | |
| 20260504193554 | 54 | 0.0 | 0.0 | 0.00 | 0.01 | 0.00 | 79 | 1015.1 | |
| 20260504192551 | 54 | 0.0 | 0.0 | 0.00 | 0.01 | 0.00 | 79 | 1015.0 | |
| 20260504191549 | 54 | 0.0 | 0.0 | 0.00 | 0.01 | 0.00 | 79 | 1015.0 | |
| 20260504190546 | 55 | 0.0 | 0.0 | 0.00 | 0.01 | 0.00 | 78 | 1015.0 | |
| 20260504185544 | 55 | 0.0 | 0.0 | 0.00 | 0.01 | 0.00 | 77 | 1015.0 | |
| 20260504184541 | 56 | 0.0 | 0.0 | 0.00 | 0.01 | 0.00 | 76 | 1015.0 | |
| 20260504183538 | 56 | 0.0 | 0.0 | 0.00 | 0.01 | 0.00 | 75 | 1015.0 | |
| 20260504182536 | 57 | 0.0 | 0.0 | 0.00 | 0.01 | 0.00 | 74 | 1014.9 | |
| 20260504181533 | 57 | 0.0 | 0.0 | 0.00 | 0.01 | 0.00 | 74 | 1015.0 | |
| 20260504180531 | 57 | 0 | 0.0 | 2.0 | 0.00 | 0.01 | 0.00 | 73 | 1014.9 |
| 20260504175528 | 57 | 0.0 | 0.0 | 0.00 | 0.01 | 0.00 | 74 | 1014.9 | |
| 20260504174525 | 57 | 0.0 | 2.0 | 0.00 | 0.01 | 0.00 | 74 | 1014.9 | |
| 20260504173523 | 57 | 0 | 0.0 | 2.0 | 0.00 | 0.01 | 0.00 | 74 | 1014.8 |
| 20260504172520 | 57 | 0.0 | 2.0 | 0.00 | 0.01 | 0.00 | 74 | 1014.7 | |
| 20260504171518 | 58 | 0.0 | 2.0 | 0.00 | 0.01 | 0.00 | 73 | 1014.8 | |
| 20260504170515 | 58 | 23 | 0.0 | 2.0 | 0.00 | 0.01 | 0.00 | 72 | 1014.9 |
| 20260504150545 | 60 | 22 | 1.0 | 4.0 | 0.00 | 0.01 | 0.00 | 69 | 1015.2 |
| 20260504140529 | 61 | 356 | 1.0 | 4.0 | 0.00 | 0.01 | 0.00 | 67 | 1015.5 |
| 20260504130614 | 62 | 0.0 | 2.0 | 0.00 | 0.01 | 0.00 | 66 | 1015.6 |